Location: Finney State Fishing Lake and Wildlife Area
(38.1834°N, 100.3310°W)
Time: 14:44:53
(UTC+00:00)

ADEOS - Pass Details

Date: 17 October 2021
Orbit: 793 x 794 km, 98.9° (Epoch: 04 December)

Event Time Altitude Azimuth Distance (km) Brightness Sun altitude
Rises 12:24:47 0° 9° (N) 3,302 6.8 -6.2°
Reaches altitude 10° 12:27:08 10° 6° (N) 2,368 6.0 -5.7°
Maximum altitude 12:32:16 61° 288° (WNW) 900 3.6 -4.7°
Drops below altitude 10° 12:37:23 10° 208° (SSW) 2,353 5.8 -3.7°
Sets 12:39:43 0° 205° (SSW) 3,279 6.6 -3.3°
